[[{"header":{"parameterUnit":"m.s-1","parameterCategory":1,"la1":30.2991,"la2":30.254,"lo1":-89.0895,"lo2":-89.0444,"dy":0.0017,"dx":0.0017,"nx":28,"ny":28,"refTime":"2023-09-27T21:00:00:Z","depth":0,"parameterNumber":2,"parameterNumberName":"U-component_of_WINDS"},"data":[0,0,0,0,0,0,0,0,0,0,0,0,0,0,0,0,0,0,0,0,0,0,0,0,0,0,0,0,0,0,0,0,0,0,0,0,0,0,0,0,0,0,0,0,0,0,0,0,0,0,0,0,0,0,0,0,0,0,-4.2791,-4.2792,0,-4.2872,-4.2873,-4.2873,-4.2835,-4.2833,-4.2831,-4.2829,-4.2909,-4.2913,-4.2917,0,0,0,0,0,0,0,0,0,0,0,0,0,-4.2602,-4.2605,-4.2791,-4.2792,-4.2793,-4.2872,-4.2873,-4.2874,-4.2835,-4.2833,-4.283,-4.2828,-4.2908,-4.2912,-4.2917,0,0,0,0,0,0,0,0,0,0,0,0,0,-4.2683,-4.2607,-4.2791,-4.2783,-4.2784,-4.2871,-4.2873,-4.2874,-4.2836,-4.2833,-4.283,-4.2827,-4.2906,-4.2912,-4.2918,-4.3017,0,0,-4.2936,-4.2939,0,0,0,0,0,0,0,0,-4.2679,-4.269,-4.2784,-4.2784,-4.2784,-4.284,-4.2835,-4.2922,-4.2837,-4.2816,-4.2829,-4.2825,-4.2888,-4.2896,-4.2917,-4.3021,-4.3024,-4.2937,-4.2941,-4.2943,-4.2945,0,0,0,0,0,0,0,-4.2673,-4.2686,-4.2823,-4.2785,-4.2786,-4.2775,-4.2783,-4.2851,-4.2868,-4.2817,-4.2815,-4.2825,-4.2888,-4.2912,-4.2919,-4.3025,-4.2937,-4.2942,-4.2946,-4.2948,-4.3214,-4.3217,0,0,0,0,0,0,-4.2668,-4.2682,-4.282,-4.2825,-4.2723,-4.2781,-4.279,-4.2825,-4.2868,-4.2871,-4.2828,-4.2823,-4.2903,-4.2912,-4.2922,-4.3041,-4.2943,-4.2949,-4.2952,-4.3211,-4.3215,-4.3219,0,0,0,0,0,0,-4.2664,-4.2681,-4.2817,-4.2753,-4.277,-4.2788,-4.2827,-4.2829,-4.2852,-4.2875,-4.2878,-4.2849,-4.2901,-4.2913,-4.2994,-4.3043,-4.2952,-4.2957,-4.3207,-4.3212,-4.3217,-4.328,0,0,0,0,0,0,-4.2659,-4.2679,-4.2718,-4.2754,-4.2773,-4.2889,-4.283,-4.2832,-4.2863,-4.2858,-4.2896,-4.2899,-4.2899,-4.2985,-4.3,-4.305,-4.2962,-4.3202,-4.3209,-4.3215,-4.3274,-4.3287,-4.3298,0,0,0,0,0,-4.2652,-4.2732,-4.272,-4.2737,-4.2822,-4.2892,-4.2903,-4.2902,-4.2867,-4.2906,-4.292,-4.2898,-4.3035,-4.2994,-4.301,-4.3063,-4.3199,-4.3207,-4.3215,-4.3269,-4.3285,-4.3298,0,0,0,0,0,0,-4.27,-4.2737,-4.2724,-4.2818,-4.2852,-4.2885,-4.2934,-4.2919,-4.2963,-4.2956,-4.2952,-4.2961,-4.3045,-4.3061,-4.3014,-4.3161,-4.3112,-4.3123,-4.3147,-4.3163,-4.3175,-4.3169,-4.2967,0,0,0,0,0,-4.2722,-4.2777,-4.2805,-4.2885,-4.2903,-4.2916,-4.2946,-4.2943,-4.2977,-4.2991,-4.3012,-4.3046,-4.3097,-4.313,-4.3178,-4.3276,-4.3284,-4.332,-4.3332,-4.3342,-4.3352,-4.3405,-4.3422,-4.3244,-4.3244,-4.3244,0,0,-4.2767,-4.2794,-4.2828,-4.2896,-4.2922,-4.2978,-4.2928,-4.2989,-4.3031,-4.3,-4.3079,-4.3095,-4.3132,-4.3222,-4.3262,-4.3239,-4.3403,-4.3352,-4.336,-4.3365,-4.3415,-4.3432,-4.3447,-4.3249,-4.3248,-4.3247,0,0,-4.2878,-4.2904,-4.2974,-4.3001,-4.3042,-4.305,-4.3066,-4.3102,-4.3112,-4.319,-4.3169,-4.3217,-4.3305,-4.3333,-4.3358,-4.348,-4.3461,-4.3496,-4.356,-4.3612,-4.3626,-4.3638,-4.3682,-4.3698,-4.3505,-4.3506,-4.3506,0,-4.293,-4.3014,-4.3012,-4.3075,-4.3106,-4.3081,-4.3152,-4.3178,-4.3232,-4.3253,-4.3225,-4.3335,-4.3359,-4.3455,-4.3485,-4.3506,-4.3525,-4.3492,-4.3624,-4.3636,-4.3648,-4.369,-4.3706,-4.351,-4.3509,-4.3509,-4.3508,0,-4.3075,-4.3134,-4.3185,-4.3239,-4.3275,-4.3342,-4.3349,-4.3385,-4.3378,-4.3389,-4.3469,-4.3496,-4.355,-4.3572,-4.3565,-4.3667,-4.3651,-4.3624,-4.3575,-4.3669,-4.3708,-4.3724,-4.3515,-4.3514,-4.3513,-4.3512,0,0,-4.322,-4.3272,-4.3291,-4.3315,-4.3358,-4.3403,-4.3468,-4.3521,-4.3552,-4.359,-4.3645,-4.3719,-4.3694,-4.3723,-4.372,-4.3765,-4.3861,-4.3732,-4.3733,-4.3756,-4.3975,-4.3997,-4.4015,-4.3848,-4.3851,-4.3853,-4.3972,0,-4.3335,-4.3451,-4.3451,-4.3557,-4.3611,-4.3589,-4.3646,-4.3678,-4.3689,-4.3736,-4.3748,-4.3801,-4.3764,-4.3782,-4.3825,-4.384,-4.3905,-4.3831,-4.3899,-4.3901,-4.3891,-4.4036,-4.4058,-4.4169,-4.3988,-4.399,-4.3992,0,-4.3485,-4.3529,-4.3641,-4.3676,-4.3699,-4.375,-4.3799,-4.3844,-4.388,-4.3885,-4.3918,-4.3907,-4.3973,-4.3921,-4.4011,-4.3961,-4.3989,-4.4,-4.4004,-4.4011,-4.3953,-4.4048,-4.4205,-4.4222,-4.4016,-4.4014,-4.4013,0,-4.3581,-4.3667,-4.3746,-4.3767,-4.381,-4.3846,-4.3866,-4.3898,-4.393,-4.3972,-4.3993,-4.4042,-4.4069,-4.4106,-4.4109,-4.4071,-4.42,-4.4149,-4.4206,-4.4206,-4.4236,-4.4234,-4.44,-4.4252,-4.4251,-4.4251,-4.4251,0,-4.371,-4.378,-4.379,-4.3838,-4.3915,-4.3914,-4.399,-4.4006,-4.4035,-4.4086,-4.4068,-4.4116,-4.4116,-4.4164,-4.4166,-4.4241,-4.4253,-4.4259,-4.4259,-4.4261,-4.4261,-4.428,-4.4273,-4.4256,-4.4255,-4.4254,-4.4253,0,-4.3831,-4.384,-4.3924,-4.3958,-4.3968,-4.4023,-4.4052,-4.4097,-4.4107,-4.4171,-4.4186,-4.4201,-4.4257,-4.4263,-4.4328,-4.4329,-4.442,-4.4411,-4.4409,-4.4408,-4.4465,-4.446,-4.4651,-4.4676,-4.451,-4.4512,-4.4513,0,-4.3913,-4.3967,-4.4006,-4.4039,-4.4061,-4.4114,-4.4147,-4.4147,-4.4182,-4.4226,-4.4267,-4.4321,-4.4365,-4.4455,-4.4472,-4.4521,-4.4514,-4.4577,-4.4521,-4.4522,-4.4516,-4.4513,-4.4519,-4.4588,-4.459,-4.4592,-4.4593,0,-4.4059,-4.4061,-4.4109,-4.416,-4.42,-4.4239,-4.4276,-4.4303,-4.4308,-4.4348,-4.4405,-4.4439,-4.4506,-4.456,-4.4609,-4.4628,-4.4612,-4.461,-4.4626,-4.463,-4.4627,-4.463,-4.4439,-4.4606,-4.4605,-4.4604,-4.4603,-4.4602,-4.4164,-4.421,-4.4246,-4.43,-4.4328,-4.4363,-4.4408,-4.4423,-4.4471,-4.4526,-4.4523,-4.4587,-4.462,-4.4684,-4.4707,-4.4756,-4.4735,-4.4758,-4.4764,-4.477,-4.4777,-4.4618,-4.4765,-4.4764,-4.4764,-4.4764,-4.4763,0,-4.431,-4.4331,-4.4381,-4.4434,-4.4477,-4.4458,-4.4497,-4.4534,-4.4591,-4.4624,-4.4667,-4.4734,-4.4786,-4.4806,-4.4858,-4.4893,-4.4887,-4.4907,-4.4905,-4.4909,-4.4792,-4.4774,-4.4911,-4.4911,-4.4911,-4.4911,-4.4911,-4.4911,-4.4391,-4.4469,-4.4475,-4.4566,-4.4587,-4.465,-4.4674,-4.4706,-4.4733,-4.4808,-4.4852,-4.4865,-4.4893,-4.4946,-4.4993,-4.4997,-4.5017,-4.5041,-4.5042,-4.4932,-4.4918,-4.4903,-4.4886,-4.5045,-4.5045,-4.5155,-4.5156,-4.5157]},{"header":{"parameterUnit":"m.s-1","parameterCategory":1,"la1":30.2991,"la2":30.254,"lo1":-89.0895,"lo2":-89.0444,"dy":0.0017,"dx":0.0017,"nx":28,"ny":28,"refTime":"2023-09-27T21:00:00:Z","depth":0,"parameterNumber":3,"parameterNumberName":"V-component_of_WINDS"},"data":[0,0,0,0,0,0,0,0,0,0,0,0,0,0,0,0,0,0,0,0,0,0,0,0,0,0,0,0,0,0,0,0,0,0,0,0,0,0,0,0,0,0,0,0,0,0,0,0,0,0,0,0,0,0,0,0,0,0,-3.7014,-3.7014,0,-3.7069,-3.707,-3.7071,-3.7035,-3.7033,-3.7032,-3.703,-3.7085,-3.7088,-3.7091,0,0,0,0,0,0,0,0,0,0,0,0,0,-3.6874,-3.6877,-3.7014,-3.7014,-3.7015,-3.7069,-3.707,-3.7071,-3.7035,-3.7033,-3.7031,-3.7029,-3.7084,-3.7087,-3.7091,0,0,0,0,0,0,0,0,0,0,0,0,0,-3.6933,-3.6878,-3.7014,-3.7004,-3.7004,-3.7069,-3.707,-3.7071,-3.7036,-3.7033,-3.7031,-3.7028,-3.7083,-3.7087,-3.7091,-3.7169,0,0,-3.7105,-3.7107,0,0,0,0,0,0,0,0,-3.693,-3.6938,-3.7005,-3.7005,-3.7005,-3.7043,-3.7041,-3.7104,-3.7036,-3.7023,-3.703,-3.7027,-3.7073,-3.7078,-3.7094,-3.7171,-3.7174,-3.7105,-3.7108,-3.711,-3.7111,0,0,0,0,0,0,0,-3.6926,-3.6935,-3.7036,-3.7006,-3.7006,-3.6996,-3.7002,-3.7053,-3.7061,-3.7024,-3.7022,-3.7029,-3.7072,-3.7089,-3.7095,-3.7174,-3.7105,-3.7109,-3.7112,-3.7114,-3.7318,-3.7321,0,0,0,0,0,0,-3.6923,-3.6932,-3.7034,-3.7037,-3.696,-3.7001,-3.7007,-3.7033,-3.7061,-3.7062,-3.7031,-3.7027,-3.7083,-3.7089,-3.7096,-3.7189,-3.711,-3.7114,-3.7117,-3.7316,-3.7319,-3.7322,0,0,0,0,0,0,-3.692,-3.6932,-3.7032,-3.6984,-3.6996,-3.7006,-3.7035,-3.7035,-3.7053,-3.7066,-3.7067,-3.7047,-3.7081,-3.709,-3.7151,-3.7191,-3.7116,-3.712,-3.7312,-3.7317,-3.732,-3.7375,0,0,0,0,0,0,-3.6916,-3.6931,-3.6961,-3.6985,-3.6999,-3.7087,-3.7038,-3.7038,-3.7061,-3.7056,-3.7081,-3.7083,-3.708,-3.7145,-3.7156,-3.7195,-3.7124,-3.7309,-3.7314,-3.7319,-3.737,-3.7381,-3.739,0,0,0,0,0,-3.6911,-3.6974,-3.6963,-3.6976,-3.7037,-3.7089,-3.7097,-3.7092,-3.7064,-3.7094,-3.7102,-3.7082,-3.7184,-3.7151,-3.7163,-3.7205,-3.7306,-3.7313,-3.7319,-3.7366,-3.7379,-3.739,0,0,0,0,0,0,-3.6954,-3.6977,-3.6965,-3.7038,-3.7062,-3.7083,-3.7121,-3.7106,-3.7138,-3.7132,-3.7125,-3.7131,-3.7195,-3.7206,-3.7169,-3.7281,-3.7241,-3.725,-3.7272,-3.7285,-3.7295,-3.7291,-3.7128,0,0,0,0,0,-3.6972,-3.7013,-3.703,-3.7093,-3.7106,-3.7111,-3.7134,-3.7128,-3.7152,-3.7162,-3.7175,-3.7199,-3.7236,-3.7261,-3.7296,-3.7371,-3.7376,-3.7405,-3.7415,-3.7424,-3.7432,-3.7473,-3.7486,-3.7342,-3.7342,-3.7342,0,0,-3.7009,-3.7027,-3.7053,-3.7102,-3.712,-3.7162,-3.712,-3.7166,-3.7197,-3.7169,-3.7228,-3.7238,-3.7264,-3.7333,-3.7363,-3.7343,-3.7472,-3.7431,-3.7438,-3.7442,-3.748,-3.7494,-3.7506,-3.7346,-3.7345,-3.7345,0,0,-3.7099,-3.7116,-3.7171,-3.719,-3.7218,-3.7221,-3.7234,-3.7257,-3.7263,-3.7323,-3.7302,-3.7338,-3.7403,-3.7422,-3.7441,-3.7538,-3.7521,-3.7549,-3.7602,-3.7642,-3.7653,-3.7663,-3.7699,-3.7711,-3.7557,-3.7557,-3.7557,0,-3.7142,-3.7206,-3.72,-3.7249,-3.7271,-3.7247,-3.7302,-3.732,-3.7358,-3.7373,-3.735,-3.7431,-3.7447,-3.752,-3.7544,-3.7559,-3.7574,-3.7547,-3.7652,-3.7662,-3.7671,-3.7705,-3.7718,-3.756,-3.756,-3.756,-3.7559,0,-3.7257,-3.7302,-3.7342,-3.738,-3.7406,-3.7457,-3.7459,-3.7486,-3.7478,-3.7484,-3.7544,-3.7562,-3.7601,-3.7617,-3.761,-3.769,-3.7676,-3.7653,-3.7612,-3.7689,-3.772,-3.7733,-3.7565,-3.7564,-3.7563,-3.7562,0,0,-3.7376,-3.7411,-3.7426,-3.7443,-3.7472,-3.7506,-3.7556,-3.7594,-3.7618,-3.7644,-3.7686,-3.7741,-3.772,-3.774,-3.7734,-3.777,-3.7846,-3.7742,-3.7742,-3.7761,-3.7936,-3.7954,-3.7969,-3.7834,-3.7837,-3.7839,-3.7934,0,-3.7469,-3.7557,-3.7554,-3.7636,-3.7677,-3.7655,-3.7698,-3.772,-3.7727,-3.7762,-3.7768,-3.7807,-3.7776,-3.7788,-3.7822,-3.783,-3.7881,-3.7823,-3.7873,-3.7875,-3.7869,-3.7986,-3.8005,-3.8094,-3.7946,-3.7948,-3.795,0,-3.7589,-3.7621,-3.7707,-3.7731,-3.7748,-3.7787,-3.7822,-3.7856,-3.788,-3.7882,-3.7905,-3.7894,-3.7944,-3.7901,-3.7969,-3.793,-3.795,-3.7957,-3.796,-3.7965,-3.7918,-3.7995,-3.8123,-3.8136,-3.7969,-3.7967,-3.7966,0,-3.7669,-3.7733,-3.7793,-3.7808,-3.7837,-3.7865,-3.7878,-3.79,-3.7923,-3.7953,-3.7968,-3.8003,-3.8023,-3.805,-3.8048,-3.8017,-3.8118,-3.8075,-3.8121,-3.8121,-3.8144,-3.8143,-3.8278,-3.8155,-3.8155,-3.8155,-3.8154,0,-3.7773,-3.7827,-3.7829,-3.7867,-3.7926,-3.7921,-3.798,-3.799,-3.8009,-3.8048,-3.803,-3.8066,-3.8061,-3.8097,-3.8095,-3.8153,-3.8161,-3.8164,-3.8163,-3.8166,-3.8166,-3.818,-3.8174,-3.8158,-3.8158,-3.8157,-3.8156,0,-3.7872,-3.7876,-3.7941,-3.7962,-3.7969,-3.8012,-3.8031,-3.8065,-3.807,-3.8118,-3.8129,-3.8136,-3.8178,-3.8178,-3.8225,-3.8224,-3.8295,-3.8286,-3.8287,-3.8286,-3.8332,-3.8328,-3.8482,-3.8502,-3.8365,-3.8367,-3.8368,0,-3.794,-3.7981,-3.8007,-3.8032,-3.8047,-3.8087,-3.8111,-3.8107,-3.8133,-3.8164,-3.8195,-3.8235,-3.8267,-3.8334,-3.8343,-3.8378,-3.8371,-3.8422,-3.8377,-3.8379,-3.8373,-3.8371,-3.8376,-3.8432,-3.8433,-3.8435,-3.8436,0,-3.8058,-3.8058,-3.8094,-3.8131,-3.8161,-3.8189,-3.8215,-3.8236,-3.8235,-3.8265,-3.8307,-3.8332,-3.8381,-3.8421,-3.8455,-3.8467,-3.8452,-3.845,-3.8463,-3.8467,-3.8466,-3.8468,-3.8313,-3.8447,-3.8446,-3.8445,-3.8444,-3.8444,-3.8144,-3.818,-3.8205,-3.8246,-3.8265,-3.829,-3.8324,-3.8333,-3.8369,-3.8409,-3.8404,-3.8452,-3.8474,-3.8519,-3.8535,-3.8571,-3.8554,-3.8572,-3.8577,-3.8582,-3.8587,-3.8459,-3.8577,-3.8577,-3.8577,-3.8577,-3.8576,0,-3.8263,-3.8278,-3.8316,-3.8354,-3.8385,-3.8368,-3.8396,-3.8424,-3.8466,-3.8489,-3.8521,-3.857,-3.8609,-3.8621,-3.8658,-3.8685,-3.8678,-3.8695,-3.8693,-3.8697,-3.8601,-3.8586,-3.8699,-3.8699,-3.8699,-3.8699,-3.8699,-3.8699,-3.8329,-3.8389,-3.8392,-3.8461,-3.8475,-3.8523,-3.854,-3.8563,-3.8582,-3.8638,-3.867,-3.8678,-3.8696,-3.8734,-3.8769,-3.8771,-3.8786,-3.8805,-3.8805,-3.8715,-3.8703,-3.8691,-3.8678,-3.8808,-3.8809,-3.8898,-3.8899,-3.8899]}]]